Retour au catalogue

COSMOS 397 DEB

ActifLEO
NORAD 5277·DEBRIS·🇷🇺 Russia

Lancé Feb 25, 1971 depuis Baikonur Cosmodrome

Loading…

Prochains Passages (prochaines 24 heures)

TLE

FraisSource: Space-Track

Époque: Sep 14, 2026, 11:35 UTC

1 05277U 71015BE  26257.48305931  .00000104  00000-0  77479-4 0  9993
2 05277  65.7331  64.2941 0918413 262.8155  86.7717 13.01203845273554

Suivez COSMOS 397 DEB en temps réel avec AllMySat

Download on the App Store